SPACEBEE-83 (47707 NORAD) Tracking and Keplerian Element Data

This shows tracking and keplerian element data for the satellite.

Feedback or suggestion? Click here.




ElementValue
Catalog47707
NameSPACEBEE-83
Epoch Orbit615
Epoch Day99.76526223
Epoch Year2021
RAAN174.7071
Inclination97.4563
Eccentricity0.0011816
Argument of Perigee148.3424
Mean Anonmoly211.8525
Mean Motion15.2146176
Decay Rate4.048E-05
L11 47707U 21015J 21099.76526223 .00004048 00000-0 18293-3 0 9990
L22 47707 97.4563 174.7071 0011816 148.3424 211.8525 15.21461760 6150

Live tracking and technical data element details for SPACEBEE-83 (NORAD 47707). SPACEBEE-83 can be tracked NOW for your location showing map with azimuth and elevation plus other details from your city location.

Track the satellite on the map from your city or location and see movement details for azimuth, elevation, latitude, longitude, range, height, and movement on the map or in text.







IsCatalogInMostPopularTable: catalog: 47707, numindb: 8
Update: records affected: 1



GetName: 47707 SPACEBEE-83

Hit Count: updated at: Sat, 10 Apr 2021 18:20:57 GMT